This is the latest recevied weather packets stored in our database for station/object W1RCY. If no packets are shown the sender has not sent any weather packets the latest 10 day(s).
| Time | Temp. | Humidity | Pressure | Rain* | Wind** | Luminosity | Snow |
|---|---|---|---|---|---|---|---|
| 1777669964 | 13.33° C | 37% | 1007.1 hPa | 0 mm | - | 281 W/m² | - |
| 1777669662 | 13.33° C | 37% | 1007.2 hPa | 0 mm | - | 283 W/m² | - |
| 1777669358 | 13.89° C | 36% | 1007.2 hPa | 0 mm | - | 327 W/m² | - |
| 1777669055 | 13.89° C | 36% | 1007.1 hPa | 0 mm | - | 344 W/m² | - |
| 1777668752 | 13.89° C | 37% | 1007 hPa | 0 mm | - | 339 W/m² | - |
| 1777668449 | 13.89° C | 37% | 1006.9 hPa | 0 mm | - | 374 W/m² | - |
| 1777668146 | 13.89° C | 37% | 1007 hPa | 0 mm | - | 391 W/m² | - |
| 1777667841 | 13.33° C | 38% | 1006.9 hPa | 0 mm | - | 410 W/m² | - |
| 1777667539 | 13.33° C | 37% | 1007 hPa | 0 mm | - | 421 W/m² | - |
| 1777667236 | 13.33° C | 36% | 1007.1 hPa | 0 mm | - | 440 W/m² | - |
| 1777666933 | 13.89° C | 36% | 1006.9 hPa | 0 mm | - | 457 W/m² | - |
| 1777666630 | 13.89° C | 35% | 1006.9 hPa | 0 mm | - | 469 W/m² | - |
| 1777666326 | 13.89° C | 37% | 1006.8 hPa | 0 mm | - | 491 W/m² | - |
| 1777666023 | 13.33° C | 38% | 1006.9 hPa | 0 mm | - | 507 W/m² | - |
| 1777665721 | 13.33° C | 38% | 1007 hPa | 0 mm | - | 521 W/m² | - |
| 1777665418 | 13.89° C | 39% | 1007 hPa | 0 mm | - | 532 W/m² | - |
| 1777665114 | 13.89° C | 37% | 1006.9 hPa | 0 mm | - | 542 W/m² | - |
| 1777664810 | 13.89° C | 38% | 1007 hPa | 0 mm | - | 533 W/m² | - |
| 1777664505 | 13.89° C | 40% | 1007 hPa | 0 mm | - | 568 W/m² | - |
| 1777664203 | 13.89° C | 37% | 1006.9 hPa | 0 mm | - | 582 W/m² | - |
| 1777663901 | 13.33° C | 37% | 1007 hPa | 0 mm | - | 592 W/m² | - |
| 1777663598 | 13.33° C | 41% | 1006.9 hPa | 0 mm | - | 603 W/m² | - |
| 1777663295 | 13.33° C | 41% | 1007 hPa | 0 mm | - | 609 W/m² | - |
| 1777662992 | 13.33° C | 42% | 1007.1 hPa | 0 mm | - | 573 W/m² | - |
| 1777662689 | 13.33° C | 43% | 1007 hPa | 0 mm | - | 618 W/m² | - |
* Rain latest hour (hover to see other rain measurements)
** Current wind speed in m/s (hover to see current wind gust speed)